Location: Bieg
(49.3499°N, 10.3835°E)
Time: 23:52:20
(UTC+00:00)

Cosmos 1953 - Pass Details

Date: 23 May 2024
Orbit: 510 x 531 km, 82.5° (Epoch: 15 June)

Event Time Altitude Azimuth Distance (km) Brightness Sun altitude
Rises 00:57:54 0° 346° (NNW) 2,687 6.7 -16.4°
Reaches altitude 10° 01:00:05 10° 342° (NNW) 1,789 5.6 -16.2°
Maximum altitude 01:03:55 53° 265° (W) 654 2.5 -16.0°
Enters shadow 01:05:24 32° 205° (SSW) 915 2.9 -15.8°
